FENGYUN 1C DEB

Satellite information

Favourite Embed

Satellite Type and Status

DEBRISIN ORBIT

Key statistics

Satellite FENGYUN 1C DEB at a glance.

Uptime

9553

Days in orbit

Revolutions

≈ 14.4

Per day

Orbit

SSO

Sun Synchronous Orbit

Inclination

98.8

Latest

Satellite identification and parameters

Extended collection of information and parameters for FENGYUN 1C DEB.

Object identification

Identified? True

Debris? True

Object name: FENGYUN 1C DEB

International designator: 1999-025ASH

Object number (NORAD): 30723

Object ID (CCSDS): 30723

Country: PEOPLES REPUBLIC OF CHINA (PRC)

Current information (Y/N): Y

RCS size: SMALL

Orbital parameters

Period: 100.091 minutes

Inclination: 98.8496 deg

SMA: 7140.962 km

Apoapsis: 773.991 km

Periapsis: 751.662 km

RAAN: 266.2614 deg

Eccentricy: 0.0015634

Argument of periapsis: 31.8931 deg

Mean anomaly: 98.2317 deg

Mean motion: 14.38691645 rev/day

Mean motion (dot): 0.00003999 rev/day2

B* drag term: 0.0013167 1/REarth

Two-line elements (TLE)

Creation date: July 4, 2025, 6:39 p.m.

Reference frame: TEME

Reference center: EARTH

Epoch: July 4, 2025, 11:15 a.m. UTC

TLE line 0: 0 FENGYUN 1C DEB

TLE line 1: 1 30723U 99025ASH 25185.46896909 .00003999 00000-0 13167-2 0 9992

TLE line 2: 2 30723 98.8496 266.2614 0015634 31.8931 98.2317 14.38691645950508

Live tracking on map

Real-time ground track for satellite FENGYUN 1C DEB.

In-orbit conjunctions

A list of the most updated potential collisions computed for object FENGYUN 1C DEB.

Target Orbit TCA Probability of collision Miss distance Type
CZ-6A DEB LEO 2025-02-03 21:59:31 0.0002016304 348.0 (m) DEBRIS
CZ-4C R/B SSO 2024-12-24 05:23:17 0.000142235 134.0 (m) ROCKET BODY
DELTA 1 DEB SSO 2024-08-14 04:45:22 0.0004638849 95.0 (m) DEBRIS
SL-16 DEB LEO 2024-07-16 05:46:39 0.0001212224 223.0 (m) DEBRIS
CZ-4 DEB SSO 2024-06-06 05:41:07 0.0001566742 263.0 (m) DEBRIS

Associated space launch

Chinese polar orbiting meteorological satellite

FENGYUN 1C DEB was lifted into orbit during the mission ‘Long March 4B | Feng Yun 1C’, on board a Long March 4B space rocket.

The launch took place on May 10, 1999, 1:33 a.m. from Launch Complex 7.

For more information about the launch, click the button.

Launch to space Long March 4B | Feng Yun 1C
Long March 4B | Feng Yun 1C

Agency: N/A

Status: Launch Successful

Launch date: May 10, 1999, 1:33 a.m. UTC

Rocket: Long March 4B

Launch pad: Launch Complex 7

Location: Taiyuan Satellite Launch Center, People's Republic of China

...

Latest news about this satellite

There are no fresh news available about this satellite. Check back as we update our databases every day.


Newsletter sign-up

Weekly statistics, charts and insights to help you stay on top of the space industry.